Tracking 28081 objects as of 27-Sep-2023
HD Live streaming from Space Station
objects crossing your sky now

MATS

Track MATS now!
10-day predictions


NORAD ID: 54227
Int'l Code: 2022-147A
Perigee: 582.2 km
Apogee: 598.3 km
Inclination: 97.7 °
Period: 96.3 minutes
Semi major axis: 6961 km
RCS: Unknown
Launch date: November 4, 2022
Source: Sweden (SWED)
Launch site: Rocket Lab Launch Complex (RLLC)
Your satellite tracking list
Your tracking list is empty




NASA's NSSDC Master Catalog

Two Line Element Set (TLE):
1 54227U 22147A   23269.60340584  .00005748  00000-0  53325-3 0  9993
2 54227  97.6586 268.8673 0011567 303.0692  56.9417 14.94764368 48642
Source of the keplerian elements: AFSPC